TimeMDT,TemperatureF,Dew PointF,Humidity,Sea Level PressureIn,VisibilityMPH,Wind Direction,Wind SpeedMPH,Gust SpeedMPH,PrecipitationIn,Events,Conditions,WindDirDegrees,DateUTC
1:53 AM,73.9,60.1,62,29.94,10.0,West,6.9,-,N/A,,Clear,280,2013-07-31 07:53:00
2:53 AM,73.0,59.0,61,29.94,10.0,Calm,Calm,-,N/A,,Clear,0,2013-07-31 08:53:00
3:53 AM,71.1,60.1,68,29.94,10.0,Calm,Calm,-,N/A,,Clear,0,2013-07-31 09:53:00
4:53 AM,70.0,60.1,71,29.95,10.0,West,3.5,-,N/A,,Clear,280,2013-07-31 10:53:00
5:53 AM,69.1,60.1,73,29.98,10.0,Calm,Calm,-,N/A,,Clear,0,2013-07-31 11:53:00
6:53 AM,69.1,59.0,70,29.99,10.0,WNW,3.5,-,N/A,,Clear,290,2013-07-31 12:53:00
7:53 AM,72.0,60.1,66,30.01,10.0,Calm,Calm,-,N/A,,Clear,0,2013-07-31 13:53:00
8:53 AM,77.0,60.1,56,30.01,10.0,Calm,Calm,-,N/A,,Clear,0,2013-07-31 14:53:00
9:53 AM,82.0,57.0,42,30.00,10.0,Variable,3.5,-,N/A,,Clear,0,2013-07-31 15:53:00
10:53 AM,87.1,55.9,35,29.99,10.0,West,4.6,-,N/A,,Clear,280,2013-07-31 16:53:00
11:53 AM,91.0,54.0,28,29.97,10.0,Variable,4.6,-,N/A,,Clear,0,2013-07-31 17:53:00
12:53 PM,91.0,52.0,26,29.97,10.0,SSE,4.6,-,N/A,,Clear,160,2013-07-31 18:53:00
1:53 PM,93.9,50.0,22,29.94,10.0,Calm,Calm,-,N/A,,Clear,0,2013-07-31 19:53:00
2:53 PM,93.9,51.1,23,29.91,10.0,Variable,5.8,-,N/A,,Partly Cloudy,0,2013-07-31 20:53:00
3:53 PM,93.9,50.0,22,29.88,10.0,SE,6.9,-,N/A,,Clear,140,2013-07-31 21:53:00
4:53 PM,96.1,48.9,20,29.86,10.0,Variable,4.6,-,N/A,,Clear,0,2013-07-31 22:53:00
5:53 PM,95.0,48.0,20,29.84,10.0,South,6.9,-,N/A,,Clear,180,2013-07-31 23:53:00
6:53 PM,89.1,51.1,27,29.88,10.0,West,10.4,19.6,N/A,,Clear,260,2013-08-01 00:53:00
7:36 PM,86.0,55.4,35,30.13,10.0,WNW,9.2,20.7,N/A,Thunderstorm,Scattered Clouds,290,2013-08-01 01:36:00
7:51 PM,87.8,55.4,33,30.14,10.0,Variable,3.5,-,N/A,,Mostly Cloudy,0,2013-08-01 01:51:00
7:53 PM,86.0,55.0,35,29.91,10.0,Variable,3.5,-,N/A,,Mostly Cloudy,0,2013-08-01 01:53:00
8:20 PM,86.0,51.8,31,30.15,10.0,ENE,16.1,20.7,N/A,Thunderstorm,Thunderstorm,70,2013-08-01 02:20:00
8:35 PM,87.8,50.0,27,30.13,10.0,NW,8.1,-,N/A,,Scattered Clouds,320,2013-08-01 02:35:00
8:53 PM,86.0,53.1,32,29.88,10.0,NNW,8.1,-,N/A,,Partly Cloudy,340,2013-08-01 02:53:00
9:53 PM,81.0,57.9,45,29.95,10.0,South,16.1,25.3,N/A,,Mostly Cloudy,190,2013-08-01 03:53:00
10:00 PM,77.0,60.8,57,30.20,10.0,South,16.1,26.5,N/A,,Overcast,190,2013-08-01 04:00:00
10:28 PM,75.2,60.8,61,30.24,10.0,SSW,17.3,27.6,N/A,Thunderstorm,Overcast,210,2013-08-01 04:28:00
10:43 PM,71.6,60.8,69,30.23,10.0,WSW,19.6,31.1,0.00,Rain,Light Rain,240,2013-08-01 04:43:00
10:53 PM,70.0,61.0,73,30.00,10.0,WSW,18.4,26.5,0.00,Rain-Thunderstorm,Light Thunderstorms and Rain,240,2013-08-01 04:53:00
11:18 PM,68.0,62.6,83,30.22,2.5,West,17.3,29.9,0.14,Rain-Thunderstorm,Heavy Thunderstorms and Rain,260,2013-08-01 05:18:00
11:27 PM,68.0,62.6,83,30.23,6.0,WSW,17.3,26.5,0.15,Rain-Thunderstorm,Light Rain,250,2013-08-01 05:27:00
11:53 PM,68.0,64.0,87,30.03,1.5,SSW,5.8,-,0.35,Rain-Thunderstorm,Heavy Thunderstorms and Rain,210,2013-08-01 05:53:00